Notices

What's New in latest Release from April 7th, 2021:

- Updated Glossary, including Speed of Maximum Gust, and Total Hourly Precipitation

- Updated national and regional climate services offices contacts and prices information

- Addition of station inventory lists for 1981-2010, 1971-2000, and 1961-1990 Normals.

If you haven't already, please take our survey and provide feedback about our website: https://eccc.sondage-survey.ca/f/LanguageSelection.aspx?s=442ca660-fcf1-47c0-95a9-59707d6fd709

Hourly Data Report for November 10, 2020

VICTORIA UNIVERSITY CS
BRITISH COLUMBIA
Current Station Operator: ECCC - MSC

48°27'25.200" N
123°18'16.600" W
60.10 m
1018598
71783
WYJ

Download Data

Hourly Data (November 2020)
Hourly Data Report for November 10, 2020
TIME
LST
Temp Definition
°C
Dew Point Definition
°C
Rel Hum Definition
%
Precip. Amount Definition
mm

Wind Dir Definition
10's deg

Wind Spd Definition
km/h
Visibility Definition
km
Stn Press Definition
kPa
Hmdx Definition


Wind Chill Definition


Weather Definition


00:00 4.8 4.6 98 1.4 29 3   100.66     LegendNANA
01:00 3.9 3.4 97 0.0 29 9   100.73     LegendNANA
02:00 3.0 2.2 95 0.0 30 9   100.75     LegendNANA
03:00 2.1 1.5 96 0.0 31 6   100.76     LegendNANA
04:00 2.3 1.8 96 0.0 34 6   100.75     LegendNANA
05:00 3.1 2.3 95 0.0 34 5   100.74     LegendNANA
06:00 3.2 2.7 97 0.2 35 1   100.73     LegendNANA
07:00 2.5 2.3 99 0.0 27 1   100.76     LegendNANA
08:00 3.4 3.3 100 0.0 32 2   100.79     LegendNANA
09:00 4.8 4.2 96 0.0 4 2   100.79     LegendNANA
10:00 5.5 4.0 90 0.0 3 3   100.80     LegendNANA
11:00 6.3 2.8 79 0.0 3 5   100.80     LegendNANA
12:00 5.8 2.7 81 0.0 2 4   100.79     LegendNANA
13:00 6.2 3.3 82 0.0 1 4   100.79     LegendNANA
14:00 6.9 3.1 77 0.0 1 10   100.79     LegendNANA
15:00 6.8 2.8 76 0.0 1 8   100.83     LegendNANA
16:00 5.6 3.0 83 0.0 1 5   100.85     LegendNANA
17:00 5.1 3.3 88 0.0 36 4   100.89     LegendNANA
18:00 5.0 3.0 87 0.0 34 3   100.94     LegendNANA
19:00 3.7 3.0 95 0.0 30 3   100.97     LegendNANA
20:00 2.9 2.4 97 0.0 30 3   100.99     LegendNANA
21:00 1.4 1.1 98 0.0 27 2   101.04     LegendNANA
22:00 1.4 1.3 99 0.0 27 3   101.09     LegendNANA
23:00 2.7 2.6 99 0.0 27 4   101.13     LegendNANA

Notes on Data Quality.

Legend

  • E = Estimated
  • M = Missing
  • NA = Not Available*
  • [empty] = Indicates an unobserved value
Date modified: